Weather History for Durango, CO

Change the Weather History Date:

Wednesday, March 7, 2012

  Actual Average Record
Temperature  
Mean Temperature 38 °F 35 °F  
Max Temperature 47 °F 49 °F 70 °F (1972)
Min Temperature 28 °F 21 °F 5 °F (2008)
Degree Days  
Heating Degree Days 27 30  
Month to date heating degree days 228 217  
Since 1 July heating degree days 5097 5392  
Cooling Degree Days 0 0  
Month to date cooling degree days 0 0  
Year to date cooling degree days 0 0  
Moisture  
Dew Point 18 °F    
Average Humidity 48    
Maximum Humidity 69    
Minimum Humidity 26    
Precipitation  
Precipitation T in 0.05 in 0.88 in (2001)
Month to date precipitation 0.06 0.36  
Year to date precipitation 1.88 2.64  
Sea Level Pressure  
Sea Level Pressure 29.76 in    
Wind  
Wind Speed 11 mph (SW)    
Max Wind Speed 30 mph    
Max Gust Speed 41 mph    
Visibility 10 miles    
Events      
T = Trace of Precipitation, MM = Missing Value Source: NWS Daily Summary

Daily Weather History Graph

Daily Weather History Graph

Search for Another Location

Airport:

Trip Planner

Search our weather history database for the weather conditions in past years. The results will help you decide how hot, cold, wet, or windy it might be!

Date:

Astronomy

Mar. 07, 2012 Rise Set
Actual Time 6:32 AM MST 6:11 PM MST
Civil Twilight 6:06 AM MST 6:37 PM MST
Nautical Twilight 5:36 AM MST 7:07 PM MST
Astronomical Twilight 5:06 AM MST 7:37 PM MST
Moon 5:50 PM MST (3/7) 5:44 AM MST (3/7)
Length of Visible Light 12h 30m
Length of Day
11h 38m
Waxing Gibbous, 99% of the Moon is Illuminated
Mar 7
Waxing Gibbous
Mar 8
Full
Mar 14
Last Quarter
Mar 22
New
Mar 30
First Quarter

Hourly Weather History & Observations

Time (MST) Temp. Windchill Dew Point Humidity Pressure Visibility Wind Dir Wind Speed Gust Speed Precip Events Conditions
12:53 AM 43.0 °F 38.2 °F 12.9 °F 30% 29.56 in 10.0 mi South 8.1 mph - N/A   Clear
2:53 AM 41.0 °F 33.5 °F 10.0 °F 28% 29.57 in 10.0 mi SSW 13.8 mph - N/A   Clear
3:53 AM 39.0 °F 31.8 °F 10.0 °F 30% 29.59 in 10.0 mi SSW 11.5 mph - N/A   Clear
5:53 AM 30.9 °F - 14.0 °F 50% 29.66 in 10.0 mi Calm Calm - N/A   Clear
6:53 AM 28.9 °F - 17.1 °F 61% 29.67 in 10.0 mi Calm Calm - N/A   Clear
7:53 AM 37.9 °F 33.5 °F 15.1 °F 39% 29.64 in 10.0 mi SSW 5.8 mph - N/A   Clear
8:53 AM 42.1 °F 33.9 °F 12.9 °F 31% 29.62 in 10.0 mi SW 17.3 mph 27.6 mph N/A   Clear
9:53 AM 44.1 °F 37.4 °F 16.0 °F 32% 29.65 in 10.0 mi SW 13.8 mph 29.9 mph N/A   Clear
10:53 AM 46.0 °F 39.3 °F 16.0 °F 30% 29.65 in 10.0 mi SSW 16.1 mph 31.1 mph N/A   Mostly Cloudy
11:53 AM 44.1 °F 36.2 °F 23.0 °F 43% 29.68 in 10.0 mi WSW 18.4 mph 32.2 mph N/A   Scattered Clouds
12:53 PM 45.0 °F 36.4 °F 24.1 °F 44% 29.70 in 10.0 mi WSW 23.0 mph 29.9 mph N/A   Partly Cloudy
1:53 PM 43.0 °F 34.2 °F 21.9 °F 43% 29.73 in 10.0 mi West 20.7 mph 26.5 mph N/A   Scattered Clouds
2:53 PM 42.1 °F 33.3 °F 18.0 °F 38% 29.75 in 10.0 mi WSW 19.6 mph 24.2 mph N/A   Overcast
3:53 PM 39.9 °F 31.4 °F 15.1 °F 36% 29.79 in 10.0 mi West 16.1 mph - N/A   Overcast
4:53 PM 36.0 °F 30.3 °F 16.0 °F 44% 29.90 in 10.0 mi NW 6.9 mph - 0.00 in   Overcast
5:53 PM 33.1 °F 23.4 °F 24.1 °F 70% 29.98 in 10.0 mi ENE 13.8 mph - N/A   Overcast
6:53 PM 33.1 °F 24.4 °F 23.0 °F 66% 29.98 in 10.0 mi NE 11.5 mph - N/A   Mostly Cloudy
7:53 PM 33.1 °F 28.7 °F 23.0 °F 66% 29.96 in 10.0 mi ESE 4.6 mph - N/A   Overcast
8:53 PM 35.1 °F 24.8 °F 21.0 °F 57% 29.91 in 10.0 mi NE 17.3 mph 23.0 mph N/A   Overcast
9:53 PM 36.0 °F 27.1 °F 21.9 °F 57% 29.93 in 10.0 mi North 13.8 mph - N/A   Overcast
10:53 PM 34.0 °F 27.2 °F 24.1 °F 67% 29.92 in 10.0 mi North 8.1 mph - N/A   Overcast
11:53 PM 30.9 °F 27.5 °F 21.9 °F 69% 29.94 in 10.0 mi ESE 3.5 mph - N/A   Clear